STARLINK-1101 (44919 NORAD) Tracking and Keplerian Element Data

This shows tracking and keplerian element data for the satellite.

Feedback or suggestion? Click here.




ElementValue
Catalog44919
NameSTARLINK-1101
Epoch Orbit2779
Epoch Day190.25001157
Epoch Year2020
RAAN281.1813
Inclination52.9992
Eccentricity0.0001141
Argument of Perigee137.8124
Mean Anonmoly82.6464
Mean Motion15.05572979
Decay Rate0.00014762
L11 44919U 20001F 20190.25001157 .00014762 00000-0 10304-2 0 9993
L22 44919 52.9992 281.1813 0001141 137.8124 82.6464 15.05572979 27797

Live tracking and technical data element details for STARLINK-1101 (NORAD 44919). STARLINK-1101 can be tracked NOW for your location showing map with azimuth and elevation plus other details from your city location.

Track the satellite on the map from your city or location and see movement details for azimuth, elevation, latitude, longitude, range, height, and movement on the map or in text.







IsCatalogInMostPopularTable: catalog: 44919, numindb: 38
Update: records affected: 1



GetName: 44919 STARLINK-1101

Hit Count: updated at: Thu, 09 Jul 2020 00:58:37 GMT